This demonstration page uses our WeatherBlox Daily Observations layout. Learn more.

Left ArrowRight Arrow

44.89941, -97.11507

Hourly Observations for February 4, 2021

Temp ( °F °C ) Dew Point ( °F °C ) Humidity (%) Winds ( mph kmh ) Pressure ( in mb ) Visibility ( mi km ) Precip ( " mm )
12:02 am 00:02 Cloudy 22 -5.6 19 -7.2 89 89 NW 22 35 29.78 1008 9 14 0.00 0.00
12:50 am 00:50 Cloudy 19 -7 16 -9 86 86 NW 21 33 29.81 1009 10 16 0.00 0.00
12:53 am 00:53 Cloudy 20 -6.7 15 -9.4 81 81 NW 22 35 29.75 1007 10 16 0.00 0.00
1:18 am 01:18 Cloudy 20 -6.7 16 -8.9 85 85 NW 24 39 29.80 1009 10 16 0.00 0.00
1:34 am 01:34 Cloudy 19 -7.2 15 -9.4 84 84 NW 23 37 29.80 1009 10 16 0.00 0.00
1:53 am 01:53 Cloudy 19 -7.2 15 -9.4 84 84 NW 16 26 29.75 1007 10 16 0.00 0.00
2:10 am 02:10 Cloudy 19 -7.2 15 -9.4 84 84 NW 20 31 29.82 1010 10 16 0.00 0.00
2:53 am 02:53 Cloudy 18 -7.8 14 -10 84 84 NW 21 33 29.78 1009 10 16 0.00 0.00
3:49 am 03:49 Cloudy 16 -9 12 -11 86 86 NW 21 33 29.85 1011 10 16 0.00 0.00
3:53 am 03:53 Cloudy 16 -8.9 12 -11.1 84 84 NW 23 37 29.77 1008 9 14 0.00 0.00
4:53 am 04:53 Windy with Snow Likely 13 -10.6 9 -12.8 84 84 NW 24 39 29.79 1009 5 8 0.00 0.00
5:33 am 05:33 Windy with Snow Likely 12 -11.1 8 -13.3 84 84 NW 22 35 29.88 1012 4 6 0.00 0.00
5:53 am 05:53 Mostly Cloudy 12 -11.1 8 -13.3 84 84 NW 18 30 29.79 1009 8 13 0.00 0.00
6:11 am 06:11 Cloudy 11 -11.7 7 -13.9 84 84 WNW 25 41 29.90 1012 7 11 0.00 0.00
6:53 am 06:53 Cloudy with Mist and Fog 10 -12.2 6 -14.4 84 84 NW 23 37 29.81 1010 5 8 0.00 0.00
7:50 am 07:50 Mostly Cloudy 7 -14 1 -17 78 78 NW 22 35 29.92 1013 10 16 0.00 0.00
7:53 am 07:53 Mostly Cloudy 7 -13.9 2 -16.7 80 80 NW 24 39 29.83 1010 10 16 0.00 0.00
8:02 am 08:02 Partly Cloudy 7 -13.9 2 -16.7 80 80 WNW 21 33 29.93 1014 10 16 0.00 0.00
8:16 am 08:16 Mostly Sunny 6 -14.4 1 -17.2 79 79 WNW 24 39 29.94 1014 10 16 0.00 0.00
8:53 am 08:53 Sunny 6 -14.4 1 -17.2 79 79 WNW 24 39 29.85 1011 10 16 0.00 0.00
9:53 am 09:53 Sunny 6 -14.4 1 -17.2 79 79 WNW 21 33 29.86 1011 10 16 0.00 0.00
10:24 am 10:24 Mostly Sunny 7 -13.9 1 -17.2 76 76 WNW 20 31 29.94 1014 10 16 0.00 0.00
10:53 am 10:53 Mostly Sunny 7 -13.9 1 -17.2 76 76 NW 23 37 29.85 1011 8 13 0.00 0.00
11:07 am 11:07 Mostly Cloudy with Haze 8 -13.3 2 -16.7 76 76 NW 20 31 29.93 1014 6 10 0.00 0.00
11:53 am 11:53 Mostly Cloudy 9 -12.8 2 -16.7 73 73 NW 23 37 29.83 1010 10 16 0.00 0.00
12:53 pm 12:53 Cloudy 11 -11.7 4 -15.6 73 73 NW 24 39 29.80 1009 8 13 0.00 0.00
1:41 pm 13:41 Mostly Cloudy 12 -11.1 5 -15 73 73 NW 21 33 29.85 1011 9 14 0.00 0.00
1:48 pm 13:48 Cloudy 12 -11 5 -15 73 73 WNW 22 35 29.84 1011 9 14 0.00 0.00
1:53 pm 13:53 Cloudy 13 -10.6 5 -15 70 70 WNW 23 37 29.78 1008 8 13 0.00 0.00
2:12 pm 14:12 Cloudy with Haze 13 -10.6 6 -14.4 74 74 NW 21 33 29.84 1010 6 10 0.00 0.00
2:21 pm 14:21 Cloudy 13 -10.6 6 -14.4 74 74 NW 18 30 29.83 1010 7 11 0.00 0.00
2:33 pm 14:33 Mostly Cloudy 14 -10 6 -14.4 71 71 WNW 23 37 29.82 1010 10 16 0.00 0.00
2:53 pm 14:53 Mostly Cloudy 14 -10 6 -14.4 71 71 WNW 22 35 29.76 1008 10 16 0.00 0.00
3:53 pm 15:53 Cloudy 14 -10 7 -13.9 73 73 WNW 23 37 29.76 1008 9 14 0.00 0.00
4:53 pm 16:53 Cloudy 13 -10.6 6 -14.4 74 74 WNW 20 31 29.78 1009 10 16 0.00 0.00
5:53 pm 17:53 Cloudy 12 -11.1 4 -15.6 70 70 WNW 18 30 29.78 1009 10 16 0.00 0.00
6:50 pm 18:50 Cloudy 12 -11 7 -14 79 79 NW 18 30 29.84 1011 8 13 0.00 0.00
6:53 pm 18:53 Windy with Snow Likely 13 -10.6 6 -14.4 74 74 NW 22 35 29.78 1009 5 8 0.00 0.00
7:33 pm 19:33 Cloudy 11 -11.7 5 -15 77 77 NW 23 37 29.85 1011 9 14 0.00 0.00
7:40 pm 19:40 Cloudy 11 -11.7 4 -15.6 73 73 NW 21 33 29.86 1011 8 13 0.00 0.00
7:53 pm 19:53 Cloudy 10 -12.2 4 -15.6 76 76 NW 21 33 29.80 1009 10 16 0.00 0.00
8:18 pm 20:18 Partly Cloudy 8 -13.3 2 -16.7 76 76 NW 17 28 29.87 1011 10 16 0.00 0.00
8:53 pm 20:53 Clear 7 -13.9 1 -17.2 76 76 NW 15 24 29.81 1009 10 16 0.00 0.00
9:53 pm 21:53 Clear 6 -14.4 0 -17.8 76 76 NW 18 30 29.81 1010 10 16 0.00 0.00
10:53 pm 22:53 Clear 5 -15 -2 -18.9 72 72 NW 18 30 29.80 1009 10 16 0.00 0.00
11:53 pm 23:53 Clear 3 -16.1 -2 -18.9 79 79 WNW 14 22 29.79 1009 10 16 0.00 0.00

Powered by AerisWeather